Hourly Data Report for September 22, 2017

All times are specified in Local Standard Time (LST). Add 1 hour to adjust for Daylight Saving Time where and when it is observed.

ALERT CLIMATE
NUNAVUT

82°30'00.000" N
62°20'00.000" W
65.40 m
2400305
71355
ZLT

Download Data

Hourly Data (September 2017)
Hourly Data Report for September 22, 2017
Temp Definition
°C
Dew Point Temp Definition
°C
Rel Hum Definition
%
Wind Dir Definition
10's deg

Wind Spd Definition
km/h
Visibility Definition
km
Stn Press Definition
kPa
Hmdx Definition


Wind Chill Definition


Weather Definition


TIME
00:00 -6.2 -8.0 87 28 7   101.10   -10 LegendNANA
01:00 -5.9 -7.5 89 28 8   101.08   -10 LegendNANA
02:00 -5.2 -6.8 88 29 6   101.06   -8 LegendNANA
03:00 -5.0 -6.5 89 30 7   101.05   -8 LegendNANA
04:00 -4.5 -6.5 86 30 6   101.04   -7 LegendNANA
05:00 -4.0 -5.4 90 36 3   101.04   -5 LegendNANA
06:00 -4.2 -5.4 91 0 1   101.01   -5 LegendNANA
07:00 -4.1 -5.2 92   0   101.01     LegendNANA
08:00 -4.0 -5.2 91 0 1   100.98   -4 LegendNANA
09:00 -4.3 -5.2 93 17 4   100.96   -6 LegendNANA
10:00 -3.5 -4.9 90 18 7   100.93   -6 LegendNANA
11:00 -3.4 -4.9 89 9 6   100.91   -6 LegendNANA
12:00 -3.6 -4.9 91 10 7   100.88   -7 LegendNANA
13:00 -3.7 -5.1 90 7 7   100.85   -7 LegendNANA
14:00 -4.0 -5.1 92 6 8   100.87   -7 LegendNANA
15:00 -4.2 -5.0 94 10 3   100.86   -5 LegendNANA
16:00 -4.0 -5.1 92 11 2   100.86   -5 LegendNANA
17:00 -4.1 -5.2 92   0   100.86     LegendNANA
18:00 -4.4 -5.0 96 28 6   100.85   -7 LegendNANA
19:00 -4.6 -4.9 98 29 8   100.84   -8 LegendNANA
20:00 -4.6 -4.7 99 29 8   100.81   -8 LegendNANA
21:00 -4.5 -4.7 99 29 8   100.79   -8 LegendNANA
22:00 -4.4 -4.6 98 29 9   100.77   -8 LegendNANA
23:00 -4.3 -4.6 98 27 8   100.74   -8 LegendNANA

Notes on Data Quality.

Legend

  • E = Estimated
  • M = Missing
  • NA = Not Available
  • ‡ = Partner data that is not subject to review by the National Climate Archives
Date modified: